Flight Information

DEPARTURE
PASCO, WA
Elevation:
410
Runways:
12/30 - 7704x150 - ASPH-G
3L/21R - 7707x150 - ASPH-G
3R/21L - 4423x75 - ASPH-F
ATIS:
125.65
Clearance Delivery:
120
Ground:
121.8
Tower:
TRI-CITIES TOWER 135.3
DESTINATION
,
Elevation:
TPA:
1000 (est.)


6579.3 NM68° True-19° Var49° HDG

Flight Plan:
(click to file on line)

1. Type
2. Aircraft Identification
3. Aircraft Type / Special Equipment
4. True Airspeed
kts
5. Departure Airport
(ICAO code)
6. Arriving Airport
(ICAO code)
7. Cruising Altitude
ft
8. Alternate Airport
(ICAO code)
9. Route of Flight
10. Remarks


00:00:00 Departure ATIS: Destination ATIS:

Clearance Limit:
Route:
Altitude: Expect in minutes
Frequency:
Transponder: (7500 Hijack / 7600 Lost Comms / 7700 Emergency)


KPSC 010453Z AUTO 02003KT 10SM CLR 13/12 A3020 RMK AO2 SLP224 T01330117
Time: 2020-10-01T04:53:00Z
1601528991
Winds: 20 @ 3 kts
Visibility: 10.0 sm
Clouds (AGL): CLR
Temperature: 13.3 C
Dew Point: 11.7 C
Pressure: 30.200787 in Hgbr


Notes:

Data extracted from FAA Digital Chart Supplement. Effective: 0901Z Thursday, Sep 10, 2020 to 0901Z Thursday, Nov 5, 2020
Current ATIS data is provided courtisy of PilotEdge.